Home   Weather   Costa Mesa   Past weeks

Flag for USA Past Weather in Costa Mesa, California, USA — Yesterday and Last 2 Weeks

Now
71 °F

Passing clouds.


Feels Like: 71 °F
Forecast: 67 / 84 °F
Wind: 3 mph from Southwest

Location: John Wayne Airport-Orange County Airport

Current Time: Aug 30, 2016 at 11:25:13 PM

Latest Report: Aug 30, 2016 at 10:53 PM


Visibility: 8 mi

Pressure: 29.83 "Hg

Humidity: 81%

Dew Point: 65 °F

Location of Costa MesaLocation

Past Weather in Costa Mesa — Graph

°F

Costa Mesa Temperature Yesterday

Maximum temperature yesterday: 81 °F (at 2:53 PM)
Minimum temperature yesterday: 66 °F (at 4:53 AM)
Average temperature yesterday: 73 °F

High & Low Weather Summary for the Past Weeks

 TemperatureHumidityPressure
High85 °F (Aug 16, 2:53 PM)91% (Aug 16, 5:53 AM)30.04 "Hg (Aug 16, 5:53 AM)
Low64 °F (Aug 17, 5:53 AM)41% (Aug 17, 4:53 PM)29.78 "Hg (Aug 30, 6:53 PM)
Average71 °F72%29.91 "Hg
* Reported Aug 15 9:53 PM — Aug 30 9:53 PM, Costa Mesa, Weather by CustomWeather, © 2016

Note: Actual official high and low records may vary slightly from our data, if they occured in-between our weather recording intervals... More about our weather records

Advertising

Costa Mesa Weather History for the Previous 24 Hours

Scroll right to see more
 ConditionsComfort  
Time TempWeatherWind HumidityBarometerVisibility
9:53 PM
Tue, Aug 30
71 °FPassing clouds.5 mph81%29.83 "Hg8 mi
8:53 PM72 °FPassing clouds.8 mph78%29.81 "Hg8 mi
7:53 PM72 °FPassing clouds.9 mph81%29.79 "Hg10 mi
6:53 PM74 °FSunny.9 mph74%29.78 "Hg10 mi
5:53 PM75 °FSunny.10 mph74%29.79 "Hg10 mi
4:53 PM78 °FPassing clouds.13 mph66%29.78 "Hg10 mi
3:53 PM81 °FPassing clouds.13 mph58%29.78 "Hg10 mi
2:53 PM82 °FPassing clouds.9 mph55%29.80 "Hg10 mi
1:53 PM82 °FPassing clouds.8 mph56%29.81 "Hg10 mi
12:53 PM81 °FPassing clouds.10 mph58%29.83 "Hg10 mi
11:53 AM83 °FPassing clouds.7 mph55%29.84 "Hg10 mi
10:53 AM77 °FPassing clouds.6 mph66%29.86 "Hg10 mi
9:53 AM74 °FPassing clouds.No wind71%29.88 "Hg8 mi
8:53 AM70 °FPartly sunny.No wind81%29.87 "Hg7 mi
7:53 AM68 °FLow clouds.No wind87%29.87 "Hg8 mi
6:53 AM67 °FLow clouds.5 mph90%29.87 "Hg9 mi
5:53 AM67 °FLow clouds.No wind90%29.86 "Hg8 mi
4:53 AM67 °FLow clouds.5 mph90%29.86 "Hg9 mi
3:53 AM68 °FClear.5 mph87%29.86 "Hg8 mi
2:53 AM68 °FClear.5 mph90%29.86 "Hg8 mi
1:53 AM69 °FClear.3 mph87%29.86 "Hg9 mi
12:53 AM70 °FClear.No wind84%29.87 "Hg10 mi
11:53 PM
Mon, Aug 29
70 °FClear.No wind84%29.87 "Hg10 mi
Weather by CustomWeather, © 2016

See weather overviewHow to use our weather pages